User: anonymous   Login
Location: Columbia
(38.9520°N, 92.3340°W)
Time: 21:31:26
(UTC-06:00)
Language:

Cosmos 1633 - Orbit

View from above orbital plane
View from above orbital plane
View from above satellite
View from above satellite

Ground track
Ground track

The orbit data is extracted from the following two-line orbital elements,

1 15592U 85020A   15060.47558946  .00009598  00000-0  41333-3 0  9995
2 15592 082.5376 076.7117 0014025 249.6640 223.8775 15.22373843636374
Epoch (UTC): 01 March 2015 11:24:50
Eccentricity: 0.0014025
inclination: 82.5376°
perigee height: 489 km
apogee height: 508 km
right ascension of ascending node: 76.7117°
argument of perigee: 249.6640°
revolutions per day: 15.22373843
mean anomaly at epoch: 223.8775°
orbit number at epoch: 63637

The dashed part of the orbit path shows where the satellite is in the earth's shadow,  

DLR